Time,TemperatureF,DewpointF,PressureIn,WindDirection,WindDirectionDegrees,WindSpeedMPH,WindSpeedGustMPH,Humidity,HourlyPrecipIn,Conditions,Clouds,dailyrainin,SoftwareType,DateUTC
2013-02-10 00:00:00,62.6,57.0,30.16,NNW,328,1.4,4.6,82,0.00,FEW,,0.00,WeatherDisplay:10.37,2013-02-10 05:00:00,
2013-02-10 00:05:00,62.5,56.9,30.16,NE,52,1.0,1.1,82,0.00,FEW,,0.00,WeatherDisplay:10.37,2013-02-10 05:05:00,
2013-02-10 00:10:00,62.4,56.8,30.16,East,87,1.1,3.5,82,0.00,FEW,,0.00,WeatherDisplay:10.37,2013-02-10 05:10:00,
2013-02-10 00:15:00,62.4,56.8,30.16,NE,50,0.1,2.3,82,0.00,CLR,,0.00,WeatherDisplay:10.37,2013-02-10 05:15:00,
2013-02-10 00:20:00,62.3,57.1,30.16,ENE,70,0.2,3.5,83,0.00,CLR,,0.00,WeatherDisplay:10.37,2013-02-10 05:20:00,
2013-02-10 00:25:00,62.2,57.0,30.15,WNW,294,0.9,3.5,83,0.00,CLR,,0.00,WeatherDisplay:10.37,2013-02-10 05:25:00,
2013-02-10 00:30:00,62.1,56.9,30.15,East,98,0.4,2.3,83,0.00,CLR,,0.00,WeatherDisplay:10.37,2013-02-10 05:30:00,
2013-02-10 00:35:00,62.1,56.9,30.15,ESE,104,1.7,6.9,83,0.00,CLR,,0.00,WeatherDisplay:10.37,2013-02-10 05:35:00,
2013-02-10 00:40:00,61.9,57.0,30.15,NE,41,0.1,1.1,84,0.00,CLR,,0.00,WeatherDisplay:10.37,2013-02-10 05:40:00,
2013-02-10 00:45:00,61.9,57.0,30.15,WSW,253,1.3,3.5,84,0.00,CLR,,0.00,WeatherDisplay:10.37,2013-02-10 05:45:00,
2013-02-10 00:50:00,61.7,56.8,30.15,SE,146,0.3,2.3,84,0.00,CLR,,0.00,WeatherDisplay:10.37,2013-02-10 05:50:00,
2013-02-10 00:55:00,61.7,57.1,30.15,SE,144,0.8,2.3,85,0.00,CLR,,0.00,WeatherDisplay:10.37,2013-02-10 05:55:00,
2013-02-10 01:00:00,61.8,57.2,30.15,East,82,2.8,6.9,85,0.00,CLR,,0.00,WeatherDisplay:10.37,2013-02-10 06:00:00,
2013-02-10 01:05:00,61.8,57.2,30.15,East,85,2.6,6.9,85,0.00,CLR,,0.00,WeatherDisplay:10.37,2013-02-10 06:05:00,
2013-02-10 01:10:00,61.8,57.2,30.15,ENE,70,1.9,5.8,85,0.00,CLR,,0.00,WeatherDisplay:10.37,2013-02-10 06:10:00,
2013-02-10 01:15:00,61.8,57.2,30.15,East,79,3.1,9.2,85,0.00,CLR,,0.00,WeatherDisplay:10.37,2013-02-10 06:15:00,
2013-02-10 01:20:00,61.7,57.1,30.15,East,91,0.1,3.5,85,0.00,CLR,,0.00,WeatherDisplay:10.37,2013-02-10 06:20:00,
2013-02-10 01:25:00,61.6,57.0,30.15,East,87,0.9,2.3,85,0.00,CLR,,0.00,WeatherDisplay:10.37,2013-02-10 06:25:00,
2013-02-10 01:30:00,61.6,57.0,30.15,NE,43,0.5,3.5,85,0.00,CLR,,0.00,WeatherDisplay:10.37,2013-02-10 06:30:00,
2013-02-10 01:35:00,61.5,57.3,30.15,East,86,2.6,8.1,86,0.00,CLR,,0.00,WeatherDisplay:10.37,2013-02-10 06:35:00,
2013-02-10 01:40:00,61.6,57.4,30.15,East,94,3.2,3.5,86,0.00,CLR,,0.00,WeatherDisplay:10.37,2013-02-10 06:40:00,
2013-02-10 01:45:00,61.6,57.4,30.15,NE,43,2.8,4.6,86,0.00,CLR,,0.00,WeatherDisplay:10.37,2013-02-10 06:45:00,
2013-02-10 01:50:00,61.6,57.4,30.15,ENE,70,2.8,5.8,86,0.00,CLR,,0.00,WeatherDisplay:10.37,2013-02-10 06:50:00,
2013-02-10 01:55:00,61.6,57.4,30.15,NE,51,2.2,5.8,86,0.00,CLR,,0.00,WeatherDisplay:10.37,2013-02-10 06:55:00,
2013-02-10 02:00:00,61.5,57.3,30.14,NE,47,3.1,4.0,86,0.00,CLR,,0.00,WeatherDisplay:10.37,2013-02-10 07:00:00,
2013-02-10 02:05:00,61.5,57.3,30.15,East,96,3.0,8.1,86,0.00,CLR,,0.00,WeatherDisplay:10.37,2013-02-10 07:05:00,
2013-02-10 02:10:00,61.4,57.2,30.14,ESE,113,0.4,3.5,86,0.00,CLR,,0.00,WeatherDisplay:10.37,2013-02-10 07:10:00,
2013-02-10 02:15:00,61.4,57.5,30.14,ENE,78,3.5,9.2,87,0.00,CLR,,0.00,WeatherDisplay:10.37,2013-02-10 07:15:00,
2013-02-10 02:20:00,61.4,57.5,30.14,East,84,1.6,6.0,87,0.00,CLR,,0.00,WeatherDisplay:10.37,2013-02-10 07:20:00,
2013-02-10 02:25:00,61.3,57.4,30.14,SE,126,2.0,4.6,87,0.00,CLR,,0.00,WeatherDisplay:10.37,2013-02-10 07:25:00,
2013-02-10 02:30:00,61.3,57.4,30.14,ENE,64,1.8,8.1,87,0.00,CLR,,0.00,WeatherDisplay:10.37,2013-02-10 07:30:00,
2013-02-10 02:35:00,61.2,57.3,30.14,East,79,2.1,4.6,87,0.00,CLR,,0.00,WeatherDisplay:10.37,2013-02-10 07:35:00,
2013-02-10 02:40:00,61.2,57.6,30.13,ESE,110,0.9,6.0,88,0.00,CLR,,0.00,WeatherDisplay:10.37,2013-02-10 07:40:00,
2013-02-10 02:45:00,61.2,57.6,30.13,ESE,102,1.8,3.5,88,0.00,CLR,,0.00,WeatherDisplay:10.37,2013-02-10 07:45:00,
2013-02-10 02:50:00,61.2,57.6,30.13,East,94,1.0,3.5,88,0.00,CLR,,0.00,WeatherDisplay:10.37,2013-02-10 07:50:00,
2013-02-10 02:55:00,61.3,57.7,30.13,ESE,106,2.3,5.8,88,0.00,SCT,,0.00,WeatherDisplay:10.37,2013-02-10 07:55:00,
2013-02-10 03:00:00,61.2,57.6,30.13,ESE,120,1.6,4.6,88,0.00,SCT,,0.00,WeatherDisplay:10.37,2013-02-10 08:00:00,
2013-02-10 03:05:00,61.3,57.7,30.13,SE,128,1.0,3.5,88,0.00,SCT,,0.00,WeatherDisplay:10.37,2013-02-10 08:05:00,
2013-02-10 03:10:00,61.3,57.7,30.13,East,94,3.7,9.2,88,0.00,SCT,,0.00,WeatherDisplay:10.37,2013-02-10 08:10:00,
2013-02-10 03:15:00,61.4,57.8,30.14,NNW,333,1.5,2.3,88,0.00,SCT,,0.00,WeatherDisplay:10.37,2013-02-10 08:15:00,
2013-02-10 03:20:00,61.5,57.9,30.13,ENE,77,1.4,3.5,88,0.00,SCT,,0.00,WeatherDisplay:10.37,2013-02-10 08:20:00,
2013-02-10 03:25:00,61.7,58.1,30.13,NE,51,4.9,8.1,88,0.00,SCT,,0.00,WeatherDisplay:10.37,2013-02-10 08:25:00,
2013-02-10 03:30:00,61.8,58.2,30.13,SE,128,1.0,3.5,88,0.00,SCT,,0.00,WeatherDisplay:10.37,2013-02-10 08:30:00,
2013-02-10 03:36:00,61.8,57.9,30.13,East,81,2.5,2.5,87,0.00,SCT,,0.00,WeatherDisplay:10.37,2013-02-10 08:36:00,
2013-02-10 03:41:00,61.7,58.1,30.13,ENE,74,1.6,6.9,88,0.00,SCT,,0.00,WeatherDisplay:10.37,2013-02-10 08:41:00,
2013-02-10 03:46:00,61.7,58.1,30.13,East,98,1.6,8.1,88,0.00,SCT,,0.00,WeatherDisplay:10.37,2013-02-10 08:46:00,
2013-02-10 03:51:00,61.7,58.1,30.13,East,82,2.3,6.9,88,0.00,SCT,,0.00,WeatherDisplay:10.37,2013-02-10 08:51:00,
2013-02-10 03:56:00,61.6,58.0,30.14,ESE,104,4.2,5.8,88,0.00,SCT,,0.00,WeatherDisplay:10.37,2013-02-10 08:56:00,
2013-02-10 04:01:00,61.6,58.0,30.14,ENE,57,1.5,11.5,88,0.00,SCT,,0.00,WeatherDisplay:10.37,2013-02-10 09:01:00,
2013-02-10 04:06:00,61.6,58.0,30.14,ENE,60,2.1,4.6,88,0.00,SCT,,0.00,WeatherDisplay:10.37,2013-02-10 09:06:00,
2013-02-10 04:11:00,61.5,57.9,30.14,NE,55,0.9,2.3,88,0.00,SCT,,0.00,WeatherDisplay:10.37,2013-02-10 09:11:00,
2013-02-10 04:16:00,61.5,57.9,30.14,ESE,110,2.2,5.8,88,0.00,SCT,,0.00,WeatherDisplay:10.37,2013-02-10 09:16:00,
2013-02-10 04:21:00,61.6,58.0,30.14,East,79,1.2,4.0,88,0.00,SCT,,0.00,WeatherDisplay:10.37,2013-02-10 09:21:00,
2013-02-10 04:26:00,61.6,58.0,30.14,East,100,0.7,6.9,88,0.00,SCT,,0.00,WeatherDisplay:10.37,2013-02-10 09:26:00,
2013-02-10 04:31:00,61.6,58.0,30.14,ENE,70,2.9,5.8,88,0.00,SCT,,0.00,WeatherDisplay:10.37,2013-02-10 09:31:00,
2013-02-10 07:45:00,62.6,58.7,30.18,ESE,112,2.4,8.1,87,0.00,SCT,,0.00,WeatherDisplay:10.37,2013-02-10 12:45:00,
2013-02-10 07:50:00,62.8,58.9,30.18,East,91,1.2,3.5,87,0.00,SCT,,0.00,WeatherDisplay:10.37,2013-02-10 12:50:00,
2013-02-10 07:55:00,63.0,58.7,30.18,East,85,3.4,6.9,86,0.00,SCT,,0.00,WeatherDisplay:10.37,2013-02-10 12:55:00,
2013-02-10 08:00:00,63.0,58.7,30.18,East,89,1.9,3.5,86,0.00,SCT,,0.00,WeatherDisplay:10.37,2013-02-10 13:00:00,
2013-02-10 08:05:00,63.3,59.0,30.18,ESE,116,4.4,6.9,86,0.00,SCT,,0.00,WeatherDisplay:10.37,2013-02-10 13:05:00,
2013-02-10 08:10:00,63.8,58.9,30.19,East,101,5.9,10.4,84,0.00,SCT,,0.00,WeatherDisplay:10.37,2013-02-10 13:10:00,
2013-02-10 08:15:00,64.3,59.0,30.19,ESE,113,5.7,10.4,83,0.00,SCT,,0.00,WeatherDisplay:10.37,2013-02-10 13:15:00,
2013-02-10 08:20:00,64.7,59.4,30.18,ESE,111,4.4,8.1,83,0.00,SCT,,0.00,WeatherDisplay:10.37,2013-02-10 13:20:00,
2013-02-10 08:25:00,64.7,59.1,30.18,NNE,32,3.5,9.2,82,0.00,SCT,,0.00,WeatherDisplay:10.37,2013-02-10 13:25:00,
2013-02-10 08:30:00,64.9,59.6,30.18,ESE,117,3.4,5.8,83,0.00,SCT,,0.00,WeatherDisplay:10.37,2013-02-10 13:30:00,
2013-02-10 08:35:00,65.1,59.5,30.19,NE,53,4.3,5.8,82,0.00,SCT,,0.00,WeatherDisplay:10.37,2013-02-10 13:35:00,
2013-02-10 08:40:00,65.4,59.4,30.19,East,98,4.1,8.1,81,0.00,SCT,,0.00,WeatherDisplay:10.37,2013-02-10 13:40:00,
2013-02-10 08:45:00,65.9,59.6,30.19,ESE,112,4.3,8.1,80,0.00,SCT,,0.00,WeatherDisplay:10.37,2013-02-10 13:45:00,
2013-02-10 08:50:00,66.5,60.1,30.19,SSE,155,4.9,8.1,80,0.00,SCT,,0.00,WeatherDisplay:10.37,2013-02-10 13:50:00,
2013-02-10 08:55:00,67.1,60.4,30.20,SE,134,4.1,9.2,79,0.00,SCT,,0.00,WeatherDisplay:10.37,2013-02-10 13:55:00,
2013-02-10 09:00:00,67.5,60.0,30.20,East,101,5.9,12.7,77,0.00,SCT,,0.00,WeatherDisplay:10.37,2013-02-10 14:00:00,
2013-02-10 09:05:00,67.9,60.4,30.20,SE,125,3.9,6.9,77,0.00,SCT,,0.00,WeatherDisplay:10.37,2013-02-10 14:05:00,
2013-02-10 09:10:00,68.2,60.3,30.20,East,87,4.2,8.1,76,0.00,SCT,,0.00,WeatherDisplay:10.37,2013-02-10 14:10:00,
2013-02-10 09:15:00,68.8,60.6,30.21,NE,56,4.8,9.2,75,0.00,CLR,,0.00,WeatherDisplay:10.37,2013-02-10 14:15:00,
2013-02-10 09:20:00,69.3,61.0,30.21,ENE,67,2.2,5.8,75,0.00,CLR,,0.00,WeatherDisplay:10.37,2013-02-10 14:20:00,
2013-02-10 09:25:00,69.6,60.6,30.21,SSW,199,7.9,11.5,73,0.00,CLR,,0.00,WeatherDisplay:10.37,2013-02-10 14:25:00,
2013-02-10 09:30:00,69.6,60.9,30.21,SE,125,4.3,9.2,74,0.00,CLR,,0.00,WeatherDisplay:10.37,2013-02-10 14:30:00,
2013-02-10 09:35:00,70.0,61.3,30.21,ESE,117,3.1,8.1,74,0.00,CLR,,0.00,WeatherDisplay:10.37,2013-02-10 14:35:00,
2013-02-10 09:40:00,70.2,61.1,30.21,SSE,166,5.2,11.5,73,0.00,CLR,,0.00,WeatherDisplay:10.37,2013-02-10 14:40:00,
2013-02-10 09:45:00,70.8,61.3,30.21,East,91,6.2,10.4,72,0.00,CLR,,0.00,WeatherDisplay:10.37,2013-02-10 14:45:00,
2013-02-10 09:50:00,70.9,61.4,30.21,SE,129,6.2,12.7,72,0.00,CLR,,0.00,WeatherDisplay:10.37,2013-02-10 14:50:00,
2013-02-10 09:55:00,71.3,61.8,30.21,ENE,63,5.4,9.2,72,0.00,CLR,,0.00,WeatherDisplay:10.37,2013-02-10 14:55:00,
2013-02-10 10:00:00,71.6,61.3,30.22,SE,143,5.9,11.5,70,0.00,CLR,,0.00,WeatherDisplay:10.37,2013-02-10 15:00:00,
2013-02-10 10:05:00,71.9,61.6,30.22,ENE,77,7.6,15.0,70,0.00,CLR,,0.00,WeatherDisplay:10.37,2013-02-10 15:05:00,
2013-02-10 10:10:00,72.2,62.3,30.22,East,100,6.9,13.8,71,0.00,CLR,,0.00,WeatherDisplay:10.37,2013-02-10 15:10:00,
2013-02-10 10:15:00,72.4,62.1,30.22,SE,130,6.0,7.0,70,0.00,CLR,,0.00,WeatherDisplay:10.37,2013-02-10 15:15:00,
2013-02-10 10:20:00,72.3,62.0,30.22,SE,143,6.5,13.8,70,0.00,CLR,,0.00,WeatherDisplay:10.37,2013-02-10 15:20:00,
2013-02-10 10:25:00,72.5,62.2,30.22,East,101,8.2,13.8,70,0.00,CLR,,0.00,WeatherDisplay:10.37,2013-02-10 15:25:00,
2013-02-10 10:30:00,72.7,62.3,30.22,East,84,7.5,12.7,70,0.00,CLR,,0.00,WeatherDisplay:10.37,2013-02-10 15:30:00,
2013-02-10 10:35:00,72.9,62.1,30.22,ESE,103,8.4,17.0,69,0.00,CLR,,0.00,WeatherDisplay:10.37,2013-02-10 15:35:00,
2013-02-10 10:40:00,73.5,62.3,30.21,ESE,111,7.1,16.1,68,0.00,CLR,,0.00,WeatherDisplay:10.37,2013-02-10 15:40:00,
2013-02-10 10:45:00,74.0,62.8,30.21,ESE,109,5.1,7.0,68,0.00,CLR,,0.00,WeatherDisplay:10.37,2013-02-10 15:45:00,
2013-02-10 10:50:00,74.4,61.9,30.21,ESE,117,8.5,15.0,65,0.00,CLR,,0.00,WeatherDisplay:10.37,2013-02-10 15:50:00,
2013-02-10 10:55:00,74.8,61.8,30.21,East,98,8.9,9.2,64,0.00,CLR,,0.00,WeatherDisplay:10.37,2013-02-10 15:55:00,
2013-02-10 11:00:00,74.6,61.2,30.21,East,87,8.5,15.0,63,0.00,CLR,,0.00,WeatherDisplay:10.37,2013-02-10 16:00:00,
2013-02-10 11:05:00,74.7,61.7,30.21,ESE,115,8.5,11.5,64,0.00,CLR,,0.00,WeatherDisplay:10.37,2013-02-10 16:05:00,
2013-02-10 11:10:00,75.0,62.0,30.21,ESE,113,5.9,10.0,64,0.00,CLR,,0.00,WeatherDisplay:10.37,2013-02-10 16:10:00,
2013-02-10 11:16:00,75.3,61.8,30.21,East,84,4.3,11.5,63,0.00,CLR,,0.00,WeatherDisplay:10.37,2013-02-10 16:16:00,
2013-02-10 11:21:00,75.7,62.2,30.21,ESE,108,6.2,13.8,63,0.00,CLR,,0.00,WeatherDisplay:10.37,2013-02-10 16:21:00,
2013-02-10 11:26:00,75.6,61.7,30.21,SE,143,7.7,13.8,62,0.00,CLR,,0.00,WeatherDisplay:10.37,2013-02-10 16:26:00,
2013-02-10 11:31:00,75.6,62.1,30.20,ESE,104,5.4,10.4,63,0.00,CLR,,0.00,WeatherDisplay:10.37,2013-02-10 16:31:00,
2013-02-10 11:36:00,76.0,62.0,30.20,SSE,150,4.4,11.5,62,0.00,CLR,,0.00,WeatherDisplay:10.37,2013-02-10 16:36:00,
2013-02-10 11:41:00,76.4,62.4,30.20,NNE,30,5.6,9.2,62,0.00,CLR,,0.00,WeatherDisplay:10.37,2013-02-10 16:41:00,
2013-02-10 11:46:00,76.6,62.6,30.20,ESE,105,5.7,10.4,62,0.00,CLR,,0.00,WeatherDisplay:10.37,2013-02-10 16:46:00,
2013-02-10 11:51:00,76.8,62.3,30.20,SE,143,9.0,11.5,61,0.00,CLR,,0.00,WeatherDisplay:10.37,2013-02-10 16:51:00,
2013-02-10 11:56:00,76.9,62.4,30.20,SSE,161,9.2,15.0,61,0.00,CLR,,0.00,WeatherDisplay:10.37,2013-02-10 16:56:00,
2013-02-10 12:01:00,77.2,62.2,30.19,East,79,8.6,8.6,60,0.00,CLR,,0.00,WeatherDisplay:10.37,2013-02-10 17:01:00,
2013-02-10 12:06:00,77.6,62.1,30.19,East,93,6.7,11.5,59,0.00,CLR,,0.00,WeatherDisplay:10.37,2013-02-10 17:06:00,
2013-02-10 12:11:00,77.3,62.3,30.20,ESE,120,6.6,11.5,60,0.00,CLR,,0.00,WeatherDisplay:10.37,2013-02-10 17:11:00,
2013-02-10 12:16:00,77.5,62.0,30.19,SSE,149,8.3,13.8,59,0.00,CLR,,0.00,WeatherDisplay:10.37,2013-02-10 17:16:00,
2013-02-10 12:21:00,77.6,61.7,30.19,SSE,160,8.8,9.2,58,0.00,CLR,,0.00,WeatherDisplay:10.37,2013-02-10 17:21:00,
2013-02-10 12:26:00,77.3,61.9,30.19,ESE,114,6.1,11.5,59,0.00,CLR,,0.00,WeatherDisplay:10.37,2013-02-10 17:26:00,
2013-02-10 12:31:00,77.5,62.0,30.18,East,88,4.8,10.4,59,0.00,CLR,,0.00,WeatherDisplay:10.37,2013-02-10 17:31:00,
2013-02-10 12:36:00,78.1,62.6,30.18,East,100,3.5,5.8,59,0.00,CLR,,0.00,WeatherDisplay:10.37,2013-02-10 17:36:00,
2013-02-10 12:41:00,77.6,61.7,30.18,East,100,8.7,16.1,58,0.00,CLR,,0.00,WeatherDisplay:10.37,2013-02-10 17:41:00,
2013-02-10 12:46:00,77.1,61.7,30.17,ESE,109,5.1,8.1,59,0.00,CLR,,0.00,WeatherDisplay:10.37,2013-02-10 17:46:00,
2013-02-10 12:51:00,77.8,61.3,30.17,ENE,67,6.1,9.2,57,0.00,CLR,,0.00,WeatherDisplay:10.37,2013-02-10 17:51:00,
2013-02-10 12:56:00,78.6,61.6,30.17,SE,143,6.5,11.5,56,0.00,CLR,,0.00,WeatherDisplay:10.37,2013-02-10 17:56:00,
2013-02-10 13:01:00,79.0,62.0,30.16,ESE,102,5.8,13.8,56,0.00,CLR,,0.00,WeatherDisplay:10.37,2013-02-10 18:01:00,
2013-02-10 13:06:00,79.0,62.0,30.16,SE,146,9.8,12.7,56,0.00,CLR,,0.00,WeatherDisplay:10.37,2013-02-10 18:06:00,
2013-02-10 13:11:00,78.4,61.4,30.16,SSW,198,6.0,12.7,56,0.00,CLR,,0.00,WeatherDisplay:10.37,2013-02-10 18:11:00,
2013-02-10 13:16:00,78.7,61.7,30.15,ESE,117,5.3,11.5,56,0.00,CLR,,0.00,WeatherDisplay:10.37,2013-02-10 18:16:00,
2013-02-10 13:21:00,78.4,60.9,30.15,SSE,154,5.7,11.5,55,0.00,CLR,,0.00,WeatherDisplay:10.37,2013-02-10 18:21:00,
2013-02-10 13:26:00,78.3,60.8,30.15,ESE,105,5.9,11.5,55,0.00,CLR,,0.00,WeatherDisplay:10.37,2013-02-10 18:26:00,
2013-02-10 13:31:00,78.7,61.7,30.15,East,101,5.0,10.4,56,0.00,CLR,,0.00,WeatherDisplay:10.37,2013-02-10 18:31:00,
2013-02-10 13:36:00,79.2,61.6,30.14,ESE,115,5.5,9.2,55,0.00,CLR,,0.00,WeatherDisplay:10.37,2013-02-10 18:36:00,
2013-02-10 13:41:00,79.1,61.5,30.14,ENE,57,4.8,8.1,55,0.00,CLR,,0.00,WeatherDisplay:10.37,2013-02-10 18:41:00,
2013-02-10 13:46:00,78.6,61.1,30.14,SE,143,4.8,9.2,55,0.00,CLR,,0.00,WeatherDisplay:10.37,2013-02-10 18:46:00,
2013-02-10 13:51:00,78.6,61.6,30.14,SE,124,6.8,10.4,56,0.00,CLR,,0.00,WeatherDisplay:10.37,2013-02-10 18:51:00,
2013-02-10 13:56:00,78.0,61.0,30.14,ESE,104,7.1,11.5,56,0.00,CLR,,0.00,WeatherDisplay:10.37,2013-02-10 18:56:00,
2013-02-10 14:01:00,77.9,60.9,30.13,ESE,103,3.7,11.0,56,0.00,CLR,,0.00,WeatherDisplay:10.37,2013-02-10 19:01:00,
2013-02-10 14:06:00,78.8,61.8,30.13,ESE,114,7.8,11.5,56,0.00,BKN,,0.00,WeatherDisplay:10.37,2013-02-10 19:06:00,
2013-02-10 14:11:00,78.7,60.7,30.13,ESE,106,4.5,8.1,54,0.00,BKN,,0.00,WeatherDisplay:10.37,2013-02-10 19:11:00,
2013-02-10 14:16:00,79.4,60.8,30.13,South,172,7.9,11.5,53,0.00,BKN,,0.00,WeatherDisplay:10.37,2013-02-10 19:16:00,
2013-02-10 14:21:00,79.7,60.5,30.13,NE,43,5.9,10.4,52,0.00,BKN,,0.00,WeatherDisplay:10.37,2013-02-10 19:21:00,
2013-02-10 14:26:00,79.4,60.8,30.12,ESE,121,4.4,6.9,53,0.00,BKN,,0.00,WeatherDisplay:10.37,2013-02-10 19:26:00,
2013-02-10 14:31:00,79.0,60.4,30.12,East,88,3.8,5.8,53,0.00,BKN,,0.00,WeatherDisplay:10.37,2013-02-10 19:31:00,
2013-02-10 14:36:00,78.7,60.1,30.12,SE,124,3.1,4.6,53,0.00,BKN,,0.00,WeatherDisplay:10.37,2013-02-10 19:36:00,
2013-02-10 14:41:00,78.6,60.0,30.12,ENE,67,6.4,11.5,53,0.00,BKN,,0.00,WeatherDisplay:10.37,2013-02-10 19:41:00,
2013-02-10 14:46:00,79.6,60.4,30.12,ESE,119,7.6,11.5,52,0.00,BKN,,0.00,WeatherDisplay:10.37,2013-02-10 19:46:00,
2013-02-10 14:51:00,80.1,60.3,30.12,SE,136,5.4,9.2,51,0.00,BKN,,0.00,WeatherDisplay:10.37,2013-02-10 19:51:00,
2013-02-10 14:56:00,80.5,61.3,30.11,ESE,117,2.0,4.0,52,0.00,BKN,,0.00,WeatherDisplay:10.37,2013-02-10 19:56:00,
2013-02-10 15:01:00,81.2,61.9,30.12,SSW,200,6.8,9.2,52,0.00,BKN,,0.00,WeatherDisplay:10.37,2013-02-10 20:01:00,
2013-02-10 15:06:00,80.1,63.0,30.12,ESE,122,2.0,3.5,56,0.00,BKN,,0.00,WeatherDisplay:10.37,2013-02-10 20:06:00,
2013-02-10 15:11:00,79.4,62.3,30.12,South,188,3.4,10.0,56,0.00,BKN,,0.00,WeatherDisplay:10.37,2013-02-10 20:11:00,
2013-02-10 15:16:00,78.8,62.8,30.11,SSW,205,3.0,4.6,58,0.00,BKN,,0.00,WeatherDisplay:10.37,2013-02-10 20:16:00,
2013-02-10 15:21:00,79.0,62.5,30.11,South,178,2.0,6.0,57,0.00,BKN,,0.00,WeatherDisplay:10.37,2013-02-10 20:21:00,
2013-02-10 15:26:00,79.5,62.9,30.11,South,191,3.0,4.6,57,0.00,BKN,,0.00,WeatherDisplay:10.37,2013-02-10 20:26:00,
2013-02-10 15:31:00,80.1,62.5,30.11,SSE,158,7.2,10.4,55,0.00,BKN,,0.00,WeatherDisplay:10.37,2013-02-10 20:31:00,
2013-02-10 15:36:00,79.8,62.7,30.11,WSW,242,3.5,8.0,56,0.00,BKN,,0.00,WeatherDisplay:10.37,2013-02-10 20:36:00,
2013-02-10 15:41:00,79.8,62.7,30.11,SSW,208,4.1,6.9,56,0.00,BKN,,0.00,WeatherDisplay:10.37,2013-02-10 20:41:00,
2013-02-10 15:46:00,79.8,62.2,30.11,SSW,200,3.7,8.1,55,0.00,BKN,,0.00,WeatherDisplay:10.37,2013-02-10 20:46:00,
2013-02-10 15:51:00,79.2,62.1,30.11,SSW,197,6.2,10.0,56,0.00,BKN,,0.00,WeatherDisplay:10.37,2013-02-10 20:51:00,
2013-02-10 15:56:00,78.5,62.0,30.11,South,172,3.7,8.1,57,0.00,FEW,,0.00,WeatherDisplay:10.37,2013-02-10 20:56:00,
2013-02-10 16:01:00,78.3,61.8,30.11,WSW,243,4.7,6.9,57,0.00,FEW,,0.00,WeatherDisplay:10.37,2013-02-10 21:01:00,
2013-02-10 16:06:00,78.2,62.2,30.11,SE,139,3.9,5.8,58,0.00,FEW,,0.00,WeatherDisplay:10.37,2013-02-10 21:06:00,
2013-02-10 16:11:00,77.9,61.9,30.11,South,190,5.8,8.1,58,0.00,FEW,,0.00,WeatherDisplay:10.37,2013-02-10 21:11:00,
2013-02-10 16:16:00,77.5,62.0,30.11,SW,221,5.7,6.9,59,0.00,FEW,,0.00,WeatherDisplay:10.37,2013-02-10 21:16:00,
2013-02-10 16:21:00,77.1,62.6,30.11,WSW,240,2.4,5.8,61,0.00,FEW,,0.00,WeatherDisplay:10.37,2013-02-10 21:21:00,
2013-02-10 16:26:00,77.1,63.1,30.11,SW,219,4.7,5.0,62,0.00,FEW,,0.00,WeatherDisplay:10.37,2013-02-10 21:26:00,
2013-02-10 16:31:00,77.0,63.0,30.12,South,176,2.4,5.8,62,0.00,FEW,,0.00,WeatherDisplay:10.37,2013-02-10 21:31:00,
2013-02-10 16:36:00,76.4,62.9,30.12,SSW,207,5.0,8.1,63,0.00,FEW,,0.00,WeatherDisplay:10.37,2013-02-10 21:36:00,
2013-02-10 16:41:00,75.7,62.7,30.12,South,181,3.1,5.8,64,0.00,FEW,,0.00,WeatherDisplay:10.37,2013-02-10 21:41:00,
2013-02-10 16:46:00,75.7,62.7,30.12,SW,226,6.4,8.1,64,0.00,FEW,,0.00,WeatherDisplay:10.37,2013-02-10 21:46:00,
2013-02-10 16:51:00,75.6,62.6,30.12,South,188,2.4,5.8,64,0.00,FEW,,0.00,WeatherDisplay:10.37,2013-02-10 21:51:00,
2013-02-10 16:56:00,75.2,62.6,30.12,SW,218,4.3,8.1,65,0.00,FEW,,0.00,WeatherDisplay:10.37,2013-02-10 21:56:00,
2013-02-10 17:01:00,75.1,63.0,30.12,WSW,245,2.8,4.6,66,0.00,FEW,,0.00,WeatherDisplay:10.37,2013-02-10 22:01:00,
2013-02-10 17:06:00,75.0,62.9,30.12,SSW,201,3.2,4.6,66,0.00,FEW,,0.00,WeatherDisplay:10.37,2013-02-10 22:06:00,
2013-02-10 17:11:00,75.2,63.5,30.13,SSE,157,4.5,9.2,67,0.00,FEW,,0.00,WeatherDisplay:10.37,2013-02-10 22:11:00,
2013-02-10 17:16:00,75.1,63.4,30.13,South,179,2.6,6.0,67,0.00,FEW,,0.00,WeatherDisplay:10.37,2013-02-10 22:16:00,
2013-02-10 17:21:00,74.5,63.7,30.13,South,177,2.7,6.9,69,0.00,FEW,,0.00,WeatherDisplay:10.37,2013-02-10 22:21:00,
2013-02-10 17:26:00,73.8,63.4,30.13,South,169,2.0,3.5,70,0.00,FEW,,0.00,WeatherDisplay:10.37,2013-02-10 22:26:00,
2013-02-10 17:31:00,73.3,63.3,30.13,SSW,211,3.6,5.0,71,0.00,FEW,,0.00,WeatherDisplay:10.37,2013-02-10 22:31:00,
2013-02-10 17:36:00,73.1,63.5,30.12,SSW,194,3.6,5.8,72,0.00,FEW,,0.00,WeatherDisplay:10.37,2013-02-10 22:36:00,
2013-02-10 17:41:00,72.9,63.3,30.13,West,266,2.6,4.6,72,0.00,FEW,,0.00,WeatherDisplay:10.37,2013-02-10 22:41:00,
2013-02-10 17:46:00,72.8,63.6,30.13,SW,218,2.1,4.6,73,0.00,FEW,,0.00,WeatherDisplay:10.37,2013-02-10 22:46:00,
2013-02-10 17:51:00,72.7,63.5,30.13,SE,129,2.8,5.8,73,0.00,FEW,,0.00,WeatherDisplay:10.37,2013-02-10 22:51:00,
2013-02-10 17:56:00,72.5,63.7,30.13,South,173,1.5,5.0,74,0.00,FEW,,0.00,WeatherDisplay:10.37,2013-02-10 22:56:00,
2013-02-10 18:01:00,72.3,63.2,30.13,SE,136,4.4,6.9,73,0.00,FEW,,0.00,WeatherDisplay:10.37,2013-02-10 23:01:00,
2013-02-10 18:06:00,72.1,63.4,30.13,SW,217,3.0,8.1,74,0.00,FEW,,0.00,WeatherDisplay:10.37,2013-02-10 23:06:00,
2013-02-10 18:11:00,71.9,63.5,30.13,SSW,208,2.8,5.8,75,0.00,BKN,,0.00,WeatherDisplay:10.37,2013-02-10 23:11:00,
2013-02-10 18:16:00,71.8,63.4,30.13,SW,215,1.9,3.0,75,0.00,BKN,,0.00,WeatherDisplay:10.37,2013-02-10 23:16:00,
2013-02-10 18:21:00,71.7,63.4,30.13,SSE,149,3.1,5.8,75,0.00,BKN,,0.00,WeatherDisplay:10.37,2013-02-10 23:21:00,
2013-02-10 18:26:00,71.6,63.3,30.13,SSW,193,3.1,4.0,75,0.00,BKN,,0.00,WeatherDisplay:10.37,2013-02-10 23:26:00,
2013-02-10 18:31:00,71.4,63.4,30.13,SSE,165,3.3,3.5,76,0.00,BKN,,0.00,WeatherDisplay:10.37,2013-02-10 23:31:00,
2013-02-10 18:36:00,71.2,63.6,30.13,SE,144,3.4,5.8,77,0.00,BKN,,0.00,WeatherDisplay:10.37,2013-02-10 23:36:00,
2013-02-10 18:41:00,71.0,63.4,30.14,South,181,2.5,4.0,77,0.00,BKN,,0.00,WeatherDisplay:10.37,2013-02-10 23:41:00,
2013-02-10 18:46:00,70.9,63.7,30.14,SSE,165,2.3,3.5,78,0.00,BKN,,0.00,WeatherDisplay:10.37,2013-02-10 23:46:00,
2013-02-10 18:52:00,70.7,63.5,30.14,SSW,207,0.4,4.6,78,0.00,BKN,,0.00,WeatherDisplay:10.37,2013-02-10 23:52:00,
2013-02-10 18:57:00,70.6,63.4,30.14,SE,134,1.2,3.5,78,0.00,BKN,,0.00,WeatherDisplay:10.37,2013-02-10 23:57:00,
2013-02-10 19:02:00,70.4,63.6,30.14,SSE,153,0.7,3.5,79,0.00,BKN,,0.00,WeatherDisplay:10.37,2013-02-11 00:02:00,
2013-02-10 19:07:00,70.3,63.5,30.15,SE,146,0.2,1.1,79,0.00,BKN,,0.00,WeatherDisplay:10.37,2013-02-11 00:07:00,
2013-02-10 19:12:00,70.2,63.7,30.15,SE,129,1.0,2.3,80,0.00,BKN,,0.00,WeatherDisplay:10.37,2013-02-11 00:12:00,
2013-02-10 19:17:00,70.0,63.5,30.15,SE,130,0.1,1.1,80,0.00,BKN,,0.00,WeatherDisplay:10.37,2013-02-11 00:17:00,
2013-02-10 19:22:00,69.9,63.4,30.15,SE,129,0.0,0.0,80,0.00,BKN,,0.00,WeatherDisplay:10.37,2013-02-11 00:22:00,
2013-02-10 19:27:00,69.8,63.3,30.15,SE,127,0.0,0.0,80,0.00,BKN,,0.00,WeatherDisplay:10.37,2013-02-11 00:27:00,
2013-02-10 19:32:00,69.6,63.2,30.15,SE,127,0.0,0.0,80,0.00,BKN,,0.00,WeatherDisplay:10.37,2013-02-11 00:32:00,
2013-02-10 19:37:00,69.4,63.3,30.15,SE,127,0.0,0.0,81,0.00,BKN,,0.00,WeatherDisplay:10.37,2013-02-11 00:37:00,
2013-02-10 19:42:00,69.5,63.1,30.16,SE,124,0.1,1.1,80,0.00,BKN,,0.00,WeatherDisplay:10.37,2013-02-11 00:42:00,
2013-02-10 19:47:00,69.6,62.8,30.16,SE,132,0.7,3.5,79,0.00,BKN,,0.00,WeatherDisplay:10.37,2013-02-11 00:47:00,
2013-02-10 19:52:00,70.0,62.5,30.16,SE,131,3.1,4.6,77,0.00,BKN,,0.00,WeatherDisplay:10.37,2013-02-11 00:52:00,
2013-02-10 19:57:00,70.5,62.2,30.16,ESE,115,1.4,2.3,75,0.00,BKN,,0.00,WeatherDisplay:10.37,2013-02-11 00:57:00,
2013-02-10 20:02:00,70.7,61.6,30.16,ESE,103,3.7,11.5,73,0.00,BKN,,0.00,WeatherDisplay:10.37,2013-02-11 01:02:00,
2013-02-10 20:07:00,71.0,61.5,30.16,SE,124,3.2,4.6,72,0.00,BKN,,0.00,WeatherDisplay:10.37,2013-02-11 01:07:00,
2013-02-10 20:12:00,71.2,61.3,30.16,SE,124,4.2,6.9,71,0.00,BKN,,0.00,WeatherDisplay:10.37,2013-02-11 01:12:00,
2013-02-10 20:17:00,71.3,61.4,30.17,ESE,112,3.5,9.0,71,0.00,BKN,,0.00,WeatherDisplay:10.37,2013-02-11 01:17:00,
2013-02-10 20:22:00,71.3,61.4,30.17,ESE,107,5.7,11.5,71,0.00,BKN,,0.00,WeatherDisplay:10.37,2013-02-11 01:22:00,
2013-02-10 20:27:00,71.3,61.4,30.17,SE,131,6.9,11.5,71,0.00,BKN,,0.00,WeatherDisplay:10.37,2013-02-11 01:27:00,
2013-02-10 20:32:00,71.3,61.4,30.17,SE,130,1.8,5.0,71,0.00,BKN,,0.00,WeatherDisplay:10.37,2013-02-11 01:32:00,
2013-02-10 20:37:00,71.2,61.3,30.17,SE,127,3.6,4.6,71,0.00,BKN,,0.00,WeatherDisplay:10.37,2013-02-11 01:37:00,
2013-02-10 20:42:00,71.0,61.5,30.17,ESE,119,1.8,3.5,72,0.00,BKN,,0.00,WeatherDisplay:10.37,2013-02-11 01:42:00,
2013-02-10 20:47:00,70.8,61.3,30.17,ESE,107,3.9,8.1,72,0.00,BKN,,0.00,WeatherDisplay:10.37,2013-02-11 01:47:00,
2013-02-10 20:52:00,70.6,61.1,30.17,ESE,119,0.5,3.0,72,0.00,BKN,,0.00,WeatherDisplay:10.37,2013-02-11 01:52:00,
2013-02-10 20:57:00,70.3,60.8,30.17,SE,124,3.0,7.0,72,0.00,BKN,,0.00,WeatherDisplay:10.37,2013-02-11 01:57:00,
2013-02-10 21:02:00,70.1,61.0,30.17,East,94,2.2,4.0,73,0.00,BKN,,0.00,WeatherDisplay:10.37,2013-02-11 02:02:00,
2013-02-10 21:07:00,69.9,60.8,30.17,SE,126,3.2,4.6,73,0.00,BKN,,0.00,WeatherDisplay:10.37,2013-02-11 02:07:00,
2013-02-10 21:12:00,69.7,61.0,30.17,East,92,3.6,5.8,74,0.00,FEW,,0.00,WeatherDisplay:10.37,2013-02-11 02:12:00,
2013-02-10 21:17:00,69.5,60.8,30.17,SSE,158,4.0,6.9,74,0.00,FEW,,0.00,WeatherDisplay:10.37,2013-02-11 02:17:00,
2013-02-10 21:22:00,69.4,60.8,30.17,East,94,2.0,4.6,74,0.00,FEW,,0.00,WeatherDisplay:10.37,2013-02-11 02:22:00,
2013-02-10 21:27:00,69.2,60.9,30.17,SE,135,5.6,8.1,75,0.00,FEW,,0.00,WeatherDisplay:10.37,2013-02-11 02:27:00,
2013-02-10 21:32:00,69.1,60.8,30.17,SE,136,4.6,9.2,75,0.00,FEW,,0.00,WeatherDisplay:10.37,2013-02-11 02:32:00,
2013-02-10 21:37:00,68.9,61.0,30.17,SE,130,3.1,3.5,76,0.00,FEW,,0.00,WeatherDisplay:10.37,2013-02-11 02:37:00,
2013-02-10 21:42:00,68.8,60.9,30.17,ESE,117,3.1,6.0,76,0.00,FEW,,0.00,WeatherDisplay:10.37,2013-02-11 02:42:00,
2013-02-10 21:47:00,68.6,60.7,30.17,East,100,3.7,7.0,76,0.00,FEW,,0.00,WeatherDisplay:10.37,2013-02-11 02:47:00,
2013-02-10 21:52:00,68.4,60.5,30.17,SE,130,2.3,4.6,76,0.00,FEW,,0.00,WeatherDisplay:10.37,2013-02-11 02:52:00,
2013-02-10 21:57:00,68.3,60.8,30.17,SE,124,3.7,5.8,77,0.00,FEW,,0.00,WeatherDisplay:10.37,2013-02-11 02:57:00,
2013-02-10 22:02:00,68.2,60.7,30.17,ESE,113,2.7,5.8,77,0.00,FEW,,0.00,WeatherDisplay:10.37,2013-02-11 03:02:00,
2013-02-10 22:07:00,68.0,60.9,30.17,SE,132,2.6,5.0,78,0.00,FEW,,0.00,WeatherDisplay:10.37,2013-02-11 03:07:00,
2013-02-10 22:12:00,67.8,60.7,30.17,ESE,107,0.7,2.3,78,0.00,FEW,,0.00,WeatherDisplay:10.37,2013-02-11 03:12:00,
2013-02-10 22:17:00,67.6,60.5,30.17,ESE,110,1.2,3.5,78,0.00,FEW,,0.00,WeatherDisplay:10.37,2013-02-11 03:17:00,
2013-02-10 22:22:00,67.4,60.7,30.17,East,90,3.3,6.9,79,0.00,FEW,,0.00,WeatherDisplay:10.37,2013-02-11 03:22:00,
2013-02-10 22:27:00,67.3,60.6,30.17,SSE,149,1.7,3.5,79,0.00,FEW,,0.00,WeatherDisplay:10.37,2013-02-11 03:27:00,
2013-02-10 22:32:00,67.1,60.4,30.17,ESE,106,0.6,3.5,79,0.00,FEW,,0.00,WeatherDisplay:10.37,2013-02-11 03:32:00,
2013-02-10 22:37:00,66.9,60.5,30.17,SE,136,0.7,2.3,80,0.00,FEW,,0.00,WeatherDisplay:10.37,2013-02-11 03:37:00,
2013-02-10 22:42:00,66.8,60.4,30.17,ESE,110,0.3,1.1,80,0.00,FEW,,0.00,WeatherDisplay:10.37,2013-02-11 03:42:00,
2013-02-10 22:47:00,66.6,60.2,30.17,SE,130,2.4,4.6,80,0.00,FEW,,0.00,WeatherDisplay:10.37,2013-02-11 03:47:00,
2013-02-10 22:52:00,66.5,60.5,30.17,SE,141,0.3,1.1,81,0.00,FEW,,0.00,WeatherDisplay:10.37,2013-02-11 03:52:00,
2013-02-10 22:57:00,66.3,60.3,30.17,SE,124,0.3,0.0,81,0.00,FEW,,0.00,WeatherDisplay:10.37,2013-02-11 03:57:00,
2013-02-10 23:02:00,66.1,60.4,30.17,ESE,115,0.7,1.1,82,0.00,FEW,,0.00,WeatherDisplay:10.37,2013-02-11 04:02:00,
2013-02-10 23:07:00,66.0,60.3,30.17,East,86,1.5,3.5,82,0.00,FEW,,0.00,WeatherDisplay:10.37,2013-02-11 04:07:00,
2013-02-10 23:12:00,65.9,60.2,30.17,ESE,102,0.7,1.1,82,0.00,FEW,,0.00,WeatherDisplay:10.37,2013-02-11 04:12:00,
2013-02-10 23:17:00,65.7,60.4,30.17,ESE,102,0.2,1.1,83,0.00,FEW,,0.00,WeatherDisplay:10.37,2013-02-11 04:17:00,
2013-02-10 23:22:00,65.5,60.2,30.17,ESE,114,0.9,2.3,83,0.00,FEW,,0.00,WeatherDisplay:10.37,2013-02-11 04:22:00,
2013-02-10 23:27:00,65.4,60.4,30.17,SE,131,0.5,4.0,84,0.00,FEW,,0.00,WeatherDisplay:10.37,2013-02-11 04:27:00,
2013-02-10 23:32:00,65.4,60.4,30.16,ESE,123,0.7,3.5,84,0.00,FEW,,0.00,WeatherDisplay:10.37,2013-02-11 04:32:00,
2013-02-10 23:37:00,65.3,60.3,30.16,East,91,2.1,3.5,84,0.00,FEW,,0.00,WeatherDisplay:10.37,2013-02-11 04:37:00,
2013-02-10 23:42:00,65.3,60.3,30.17,ENE,62,0.6,3.5,84,0.00,FEW,,0.00,WeatherDisplay:10.37,2013-02-11 04:42:00,
2013-02-10 23:47:00,65.2,60.2,30.16,ESE,117,0.9,2.3,84,0.00,FEW,,0.00,WeatherDisplay:10.37,2013-02-11 04:47:00,
2013-02-10 23:52:00,65.2,60.6,30.16,ESE,109,1.5,3.5,85,0.00,FEW,,0.00,WeatherDisplay:10.37,2013-02-11 04:52:00,
2013-02-10 23:57:00,65.1,60.5,30.16,ESE,122,1.6,3.5,85,0.00,FEW,,0.00,WeatherDisplay:10.37,2013-02-11 04:57:00,